CCA1692 ZULS-ZUUU

Flight info

Callsign CCA1692
Flight time N/A
Altitude 35100
Route DM01D DM W9 LADUP LADU8L
Aircraft A20N/M-SDE2E3FGHIRWXY/LB1

Departure

Time 2026-04-24 06:40
Airport Lhasa Gonggar International Airport (ZULS)

Arrival

Time N/A
Airport Chengdu Shuangliu International Airport (ZUUU)
Time Latitude Longitude Altitude Speed Heading
2026-04-24 06:17 29.29388 90.89501 11951 ft 0 kts 180°
2026-04-24 06:29 29.29399 90.89501 11951 ft 2 kts 179°
2026-04-24 06:29 29.29415 90.89500 11951 ft 2 kts 180°
2026-04-24 06:29 29.29430 90.89500 11951 ft 2 kts 180°
2026-04-24 06:29 29.29444 90.89501 11951 ft 2 kts 202°
2026-04-24 06:30 29.29456 90.89512 11951 ft 2 kts 241°
2026-04-24 06:30 29.29460 90.89523 11951 ft 0 kts 266°
2026-04-24 06:30 29.29459 90.89531 11951 ft 0 kts 270°
2026-04-24 06:30 29.29459 90.89532 11951 ft 0 kts 270°
2026-04-24 06:31 29.29459 90.89531 11952 ft 0 kts 270°
2026-04-24 06:35 29.29459 90.89528 11952 ft 0 kts 269°
2026-04-24 06:35 29.29459 90.89512 11951 ft 3 kts 268°
2026-04-24 06:35 29.29458 90.89473 11950 ft 6 kts 269°
2026-04-24 06:36 29.29457 90.89410 11950 ft 8 kts 269°
2026-04-24 06:36 29.29456 90.89332 11949 ft 10 kts 269°
2026-04-24 06:36 29.29454 90.89247 11950 ft 10 kts 268°
2026-04-24 06:36 29.29494 90.89198 11950 ft 10 kts 354°
2026-04-24 06:37 29.29564 90.89196 11951 ft 9 kts 359°
2026-04-24 06:37 29.29624 90.89195 11952 ft 7 kts 359°
2026-04-24 06:37 29.29641 90.89195 11953 ft 0 kts 359°
2026-04-24 06:37 29.29643 90.89195 11953 ft 0 kts 359°
2026-04-24 06:38 29.29644 90.89195 11954 ft 0 kts 359°
2026-04-24 06:38 29.29670 90.89195 11956 ft 7 kts 359°
2026-04-24 06:38 29.29744 90.89191 11959 ft 12 kts 357°
2026-04-24 06:39 29.29778 90.89230 11959 ft 0 kts 85°
2026-04-24 06:39 29.29778 90.89236 11959 ft 2 kts 86°
2026-04-24 06:39 29.29782 90.89519 11955 ft 72 kts 91°
2026-04-24 06:39 29.29798 90.90363 11950 ft 138 kts 88°
2026-04-24 06:40 29.29819 90.91695 11941 ft 193 kts 89°
2026-04-24 06:40 29.29854 90.93355 12201 ft 218 kts 90°
2026-04-24 06:40 29.29818 90.95094 12861 ft 221 kts 93°
2026-04-24 06:40 29.29760 90.96828 13612 ft 222 kts 93°
2026-04-24 06:41 29.29710 90.98604 14211 ft 231 kts 92°
2026-04-24 06:41 29.29676 91.00504 14674 ft 248 kts 90°
2026-04-24 06:41 29.29674 91.02548 15136 ft 266 kts 90°
2026-04-24 06:41 29.29597 91.04738 15486 ft 289 kts 93°
2026-04-24 06:42 29.29462 91.07101 16078 ft 303 kts 94°
2026-04-24 06:42 29.29318 91.09503 16918 ft 307 kts 94°
2026-04-24 06:42 29.29178 91.11910 17781 ft 308 kts 94°
2026-04-24 06:42 29.29039 91.14341 18476 ft 306 kts 94°
2026-04-24 06:43 29.28901 91.16795 18869 ft 311 kts 94°
2026-04-24 06:43 29.28764 91.19250 19289 ft 315 kts 94°
2026-04-24 06:43 29.28625 91.21776 19776 ft 318 kts 94°
2026-04-24 06:43 29.28487 91.24272 20270 ft 320 kts 94°
2026-04-24 06:44 29.28345 91.26842 20749 ft 323 kts 94°
2026-04-24 06:44 29.28204 91.29385 21236 ft 326 kts 94°
2026-04-24 06:44 29.28059 91.31979 21777 ft 328 kts 94°
2026-04-24 06:44 29.27916 91.34557 22313 ft 330 kts 94°
2026-04-24 06:45 29.27768 91.37199 22873 ft 333 kts 94°
2026-04-24 06:45 29.27620 91.39840 23447 ft 335 kts 95°
2026-04-24 06:45 29.27468 91.42536 24002 ft 339 kts 94°
2026-04-24 06:45 29.27315 91.45216 24529 ft 342 kts 94°
2026-04-24 06:46 29.27161 91.47940 25071 ft 345 kts 94°
2026-04-24 06:46 29.27005 91.50666 25633 ft 346 kts 94°
2026-04-24 06:46 29.26849 91.53420 26169 ft 349 kts 95°
2026-04-24 06:46 29.26689 91.56203 26675 ft 351 kts 95°
2026-04-24 06:47 29.26530 91.58971 27164 ft 354 kts 95°
2026-04-24 06:47 29.26365 91.61809 27638 ft 357 kts 95°
2026-04-24 06:47 29.26200 91.64640 28127 ft 360 kts 95°
2026-04-24 06:47 29.26034 91.67489 28589 ft 362 kts 95°
2026-04-24 06:48 29.25868 91.70352 29024 ft 364 kts 95°
2026-04-24 06:48 29.25695 91.73274 29417 ft 367 kts 95°
2026-04-24 06:48 29.25525 91.76186 29750 ft 370 kts 94°
2026-04-24 06:48 29.25441 91.79170 29958 ft 377 kts 93°
2026-04-24 06:49 29.25371 91.82126 30126 ft 384 kts 93°
2026-04-24 06:49 29.25301 91.85020 30289 ft 391 kts 92°
2026-04-24 06:49 29.25181 91.89952 30554 ft 402 kts 92°
2026-04-24 06:50 29.25122 91.92305 30671 ft 407 kts 92°
2026-04-24 06:50 29.25107 91.92911 30702 ft 408 kts 92°